Location: Newark
(58.8333°N, 23.5833°E)
Time: 13:45:34
(UTC+00:00)

Explorer 7 - Pass Details

Date: 22 November 2019
Orbit: 485 x 680 km, 50.3° (Epoch: 06 December)

Event Time Altitude Azimuth Distance (km) Brightness Sun altitude
Rises 23:26:56 0° 244° (WSW) 2,929 - -49.1°
Reaches altitude 10° 23:29:35 10° 233° (SW) 1,988 - -48.9°
Maximum altitude 23:33:24 27° 176° (S) 1,165 - -48.7°
Drops below altitude 10° 23:37:02 10° 118° (ESE) 1,884 - -48.4°
Sets 23:39:28 0° 106° (ESE) 2,744 - -48.3°
